Regional Weather Roundup
Issued by NWS

Home | Current Version | Previous Version | Graphics & Text | Print | Product List | Glossary On
Versions: 1 2 3 4 5 6 7 8 9 10 11 12 13 14 15 16 17 18 19 20 21 22 23 24 25 26 27 28 29 30 31 32 33 34 35 36 37 38 39 40 41 42 43 44 45 46 47 48 49 50
000
ASUS43 KMPX 300410
RWRMN
WEATHER ROUNDUP FOR MINNESOTA
NATIONAL WEATHER SERVICE TWIN CITIES/CHANHASSEN MN
1100 PM CDT TUE JUL 29 2014


NOTE: "FAIR" INDICATES FEW OR NO CLOUDS BELOW 12,000 FEET WITH NO
SIGNIFICANT WEATHER AND/OR OBSTRUCTIONS TO VISIBILITY. N/A MEANS
CURRENT SKY AND/OR WEATHER CONDITIONS ARE NOT AVAILABLE.

MNZ060>063-068>070-300500-
   Twin Cities Metro

CITY           SKY/WX    TMP DP  RH WIND       PRES   REMARKS
TWIN CITIES    PTCLDY    70  55  59 NW6       30.06S
ST PAUL        PTCLDY    64  62  93 E5        30.07R
CRYSTAL        CLEAR     68  54  60 NW8       30.05S
BLAINE         CLEAR     66  55  68 W3        30.06S
LAKEVILLE      PTCLDY    61  55  82 CALM      30.07S
EDEN PRAIRIE   CLEAR     67  56  67 NW5       30.06S
SOUTH ST PAUL  PTCLDY    66  59  78 NE10      30.07R
LAKE ELMO      FAIR      63  57  82 CALM      30.07S
$$
MNZ001>005-007-008-013>017-022>024-027-028-300500-
   Northwest Minnesota

CITY           SKY/WX    TMP DP  RH WIND       PRES   REMARKS
BEMIDJI        CLEAR     59  55  85 W6        30.09S
HALLOCK        CLEAR     64  55  72 N3        30.09S
ROSEAU         CLEAR     64  55  72 W7        30.08S
WARROAD        CLEAR     64  55  72 W5        30.08S
THIEF RVR FALL CLEAR     63  57  82 W3        30.10S
CROOKSTON      CLEAR     61  57  88 CALM      30.11S
FOSSTON        CLEAR     55  48  76 CALM      30.11S
DETROIT LAKES  CLEAR     63  55  77 CALM      30.13R
MOORHEAD       CLEAR     63  61  94 CALM      30.12R
PARK RAPIDS    CLEAR     59  54  83 NW3       30.10S
$$
MNZ006-009>011-018-025>026-300500-
   North Central Minnesota

CITY           SKY/WX    TMP DP  RH WIND       PRES   REMARKS
BAUDETTE       CLEAR     65  55  70 W5        30.07S
FLAG ISLAND    CLEAR     70  57  64 NW10      30.05S
INTL FALLS     PTCLDY    57  56  96 CALM      30.05S
WASKISH        CLEAR     66  57  72 CALM      30.07S
BIG FORK       PTCLDY    57  54  88 CALM      30.08S
LONGVILLE      CLEAR     57  57 100 CALM      30.08S
GRAND RAPIDS   MOCLDY    61  57  88 CALM      30.08R
CRANE LAKE     CLOUDY    54  54 100 CALM      30.07S FOG
ORR            PTCLDY    55  52  88 CALM      30.04S FOG
COOK           PTCLDY    55  55 100 CALM      30.07S
$$
MNZ012-019>021-037-300500-
   Northeast Minnesota

CITY           SKY/WX    TMP DP  RH WIND       PRES   REMARKS
DULUTH         MOCLDY    58  55  90 W7        30.05F
ELY              N/A     52  50  93 CALM      30.06S FOG
HIBBING        PTCLDY    57  53  86 CALM      30.07R
EVELETH        PTCLDY    57  55  94 CALM      30.07R FOG
DULUTH HARBOR  LGT RAIN  59  57  94 SW8       30.04F
TWO HARBORS    PTCLDY    57  52  82 CALM      30.02S
SILVER BAY     PTCLDY    52  52 100 CALM      30.03R FOG
GRAND MARAIS     N/A     54  53  97 NE3       30.04R
G MARAIS ARPRT CLEAR     52  48  87 N6        30.07S
$$
MNZ029>031-032-039>041-046>048-054>057-064-300500-
   West Central Minnesota

CITY           SKY/WX    TMP DP  RH WIND       PRES   REMARKS
FERGUS FALLS   CLEAR     63  52  67 CALM      30.12R
WHEATON        CLEAR     61  55  82 CALM      30.13S
MORRIS         CLEAR     61  57  88 W3        30.11S
ALEXANDRIA     CLEAR     65  55  70 NW6       30.13R
ELBOW LAKE     FAIR      62  57  81 CALM      30.12R
WADENA         CLEAR     61  55  82 W3        30.11R
GLENWOOD       CLEAR     63  55  77 NW5       30.12S
APPLETON       CLEAR     61  55  82 CALM      30.11R
BENSON         CLEAR     57  55  94 CALM      30.11S
ORTONVILLE     CLEAR     64  55  72 CALM      30.11S
MADISON        CLEAR     63  57  82 W3        30.12R
WILLMAR        FAIR      61  55  82 CALM      30.12S
$$
MNZ033>034-036-042>043-049>051-058-059-300500-
   Central Minnesota

CITY           SKY/WX    TMP DP  RH WIND       PRES   REMARKS
ST CLOUD       CLEAR     64  54  69 NW3       30.07S
SAUK CENTRE    FAIR      59  55  86 CALM      30.11S
PAYNESVILLE    CLEAR     55  54  95 SW6       30.10S
AITKIN         MOCLDY    61  55  82 N5        30.07R
PINE RIVER     CLEAR     59  55  88 CALM      30.11S
BRAINERD       CLEAR     64  56  75 CALM      30.08S
STAPLES        CLEAR     59  54  82 NW3       30.10R
LONG PRAIRIE   FAIR      63  54  72 NW5       30.11R
LITTLE FALLS   CLEAR     59  54  82 CALM      30.09S
LITCHFIELD     CLEAR     64  61  88 CALM      30.10S
BUFFALO        CLEAR     67  54  63 W3        30.08S
MAPLE LAKE     CLEAR     65  56  72 W5        30.09S
$$
MNZ037-044-045-052-053-300500-
   East Central Minnesota

CITY           SKY/WX    TMP DP  RH WIND       PRES   REMARKS
PRINCETON      CLEAR     59  55  88 CALM      30.07S
MORA           PTCLDY    64  54  68 CALM      30.09R
CAMBRIDGE      PTCLDY    64  54  68 CALM      30.05S
RUSH CITY      MOCLDY    65  56  75 E5        30.07R
MOOSE LAKE     LGT RAIN  59  57  94 CALM      30.05F
HINCKLEY       CLOUDY    61  59  94 CALM      30.07F
CLOQUET        PTCLDY    55  54  94 SW3       30.06F
MCGREGOR       CLOUDY    61  57  88 CALM      30.07S
$$
MNZ071>073-080-081-089-090-097-098-300500-
   Southwest Minnesota

CITY           SKY/WX    TMP DP  RH WIND       PRES   REMARKS
MONTEVIDEO     CLEAR     64  55  72 NW5       30.12R
GRANITE FALLS  CLEAR     58  55  88 W3        30.13R
CANBY          CLEAR     60  55  83 W5        30.14R
MARSHALL       CLEAR     59  52  77 W6        30.11S
REDWOOD FALLS  CLEAR     63  55  75 W7        30.10R
OLIVIA         CLEAR     61  54  77 CALM      30.11R
PIPESTONE      CLEAR     63  55  77 CALM      30.14S
WINDOM         CLEAR     61  55  82 CALM      30.13R
WORTHINGTON    PTCLDY    59  54  82 W3        30.15R
JACKSON        CLEAR     57  54  88 NW5       30.13R
TRACY          CLEAR     62  55  75 W3        30.13S
SLAYTON        CLEAR     60  56  88 CALM      30.15R
$$
MNZ065>067-074>077-082>085-091>093-300500-
   South Central Minnesota

CITY           SKY/WX    TMP DP  RH WIND       PRES   REMARKS
MANKATO        CLEAR     64  54  68 W5        30.09S
NEW ULM        CLEAR     61  57  88 W5        30.10S
ST JAMES       CLEAR     61  55  82 W3        30.12R
FAIRMONT       CLEAR     63  54  72 NW3       30.11S
GLENCOE        CLEAR     64  55  75 CALM      30.08S
FARIBAULT      PTCLDY    64  55  72 W5        30.08S
OWATONNA       CLEAR     59  55  88 CALM      30.08S
WASECA         CLEAR     55  50  82 W3        30.11R
ALBERT LEA     CLEAR     64  55  72 W3        30.10R
$$
MNZ078>079-086>088-094>096-300500-
   Southeast Minnesota

CITY           SKY/WX    TMP DP  RH WIND       PRES   REMARKS
ROCHESTER      LGT RAIN  63  59  87 W8        30.09S
RED WING       PTCLDY    64  57  77 SE5       30.06S
STANTON        PTCLDY    64  59  86 S5        30.06F
DODGE CENTER   CLOUDY    64  61  88 E3        30.09S
WINONA         CLOUDY    68  55  64 CALM      30.08R
AUSTIN         CLEAR     64  54  68 W5        30.08S
PRESTON        CLOUDY    63  61  95 NW6       30.08F
$$
ABBREVIATIONS USED IN REMARKS
   TC - TEMPERATURES IN CELSIUS
  WCI - WIND CHILL INDEX
   HX - HEAT INDEX
  VSB - VISIBILITY
$$



USA.gov is the U.S. government's official web portal to all federal, state and local government web resources and services.